Location: Caltech
(34.1382°N, 118.1253°W)
Time: 07:24:12
(UTC-07:00)

CZ-4B DEB - Visible Passes

Search period start: 23 September 2014 00:00
Search period end: 03 October 2014 00:00
Orbit: 843 x 864 km, 98.8° (Epoch: 21 September)

Date Brightness Start Highest point End Pass type
(mag) Time Alt. Az. Time Alt. Az. Time Alt. Az.
23 Sep 6.7 03:07:45 10° ENE 03:10:45 16° E 03:10:45 16° E visible
23 Sep 4.3 04:46:36 10° N 04:52:02 57° WNW 04:52:49 52° WSW visible
24 Sep 6.9 02:57:59 10° ENE 02:59:36 12° E 02:59:36 12° E visible
24 Sep 4.1 04:35:37 10° N 04:41:09 72° WNW 04:41:40 67° WSW visible
25 Sep 4.1 04:24:41 10° NNE 04:30:16 90° E 04:30:31 83° SSW visible
25 Sep 6.1 06:09:16 10° NW 06:10:10 10° WNW 06:11:03 10° WNW visible
26 Sep 4.3 04:13:48 10° NNE 04:19:21 72° ESE 04:19:22 72° ESE visible
26 Sep 5.9 05:56:50 10° NW 05:59:25 14° WNW 06:01:25 11° W visible
27 Sep 4.7 04:02:58 10° NNE 04:08:12 56° E 04:08:12 56° E visible
27 Sep 5.7 05:45:11 10° NNW 05:48:39 17° WNW 05:50:16 15° W visible
28 Sep 5.2 03:52:12 10° NNE 03:57:03 43° E 03:57:03 43° E visible
28 Sep 5.4 05:33:46 10° NNW 05:37:52 22° WNW 05:39:07 20° W visible
29 Sep 5.7 03:41:30 10° NNE 03:45:54 34° E 03:45:54 34° E visible
29 Sep 5.1 05:22:30 10° NNW 05:27:04 27° WNW 05:27:57 26° W visible
30 Sep 6.1 03:30:53 10° NE 03:34:44 26° E 03:34:44 26° E visible
30 Sep 4.8 05:11:19 10° N 05:16:15 34° WNW 05:16:48 33° W visible
01 Oct 6.4 03:20:24 10° NE 03:23:34 20° E 03:23:34 20° E visible
01 Oct 4.6 05:00:12 10° N 05:05:25 42° WNW 05:05:38 42° WNW visible
02 Oct 6.7 03:10:06 10° NE 03:12:24 16° ENE 03:12:24 16° ENE visible
02 Oct 4.3 04:49:09 10° N 04:54:28 54° WNW 04:54:28 54° WNW visible
